Location: Santa Giusta
(39.8800°N, 8.6069°E)
Time: 16:47:44
(UTC+00:00)

BlueWalker 3 - Pass Details

Date: 02 February 2023
Orbit: 497 x 514 km, 53.2° (Epoch: 01 April)

Event Time Altitude Azimuth Distance (km) Brightness Sun altitude
Rises 17:03:38 0° 282° (WNW) 2,594 6.7 -4.1°
Reaches altitude 10° 17:06:33 10° 306° (NW) 1,716 5.2 -4.6°
Maximum altitude 17:08:55 15° 344° (NNW) 1,414 4.2 -5.0°
Drops below altitude 10° 17:11:18 10° 21° (NNE) 1,727 4.3 -5.5°
Enters shadow 17:13:22 - 40° (NE) 2,318 4.8 -5.8°
